TimeCDT,TemperatureF,Dew PointF,Humidity,Sea Level PressureIn,VisibilityMPH,Wind Direction,Wind SpeedMPH,Gust SpeedMPH,PrecipitationIn,Events,Conditions,WindDirDegrees,DateUTC
12:37 AM,64.4,62.6,94,29.74,10.0,North,9.2,-,N/A,,Mostly Cloudy,360,2013-06-30 05:37:00
12:53 AM,64.9,62.1,90,29.73,10.0,North,8.1,-,N/A,,Overcast,350,2013-06-30 05:53:00
1:04 AM,64.4,62.6,94,29.74,10.0,North,9.2,-,N/A,,Overcast,360,2013-06-30 06:04:00
1:53 AM,64.0,60.1,87,29.73,10.0,North,11.5,-,0.00,,Overcast,360,2013-06-30 06:53:00
2:53 AM,63.0,59.0,87,29.73,10.0,North,9.2,-,N/A,,Overcast,360,2013-06-30 07:53:00
3:53 AM,63.0,59.0,87,29.74,10.0,North,11.5,-,N/A,,Overcast,360,2013-06-30 08:53:00
4:13 AM,62.6,60.8,94,29.75,10.0,North,9.2,-,N/A,,Overcast,360,2013-06-30 09:13:00
4:53 AM,63.0,60.1,90,29.75,10.0,North,9.2,-,N/A,,Mostly Cloudy,10,2013-06-30 09:53:00
5:53 AM,64.0,62.1,93,29.77,8.0,North,8.1,-,0.00,Rain,Light Rain,360,2013-06-30 10:53:00
6:53 AM,64.9,62.1,90,29.78,7.0,North,9.2,-,0.00,,Overcast,360,2013-06-30 11:53:00
7:18 AM,64.4,62.6,94,29.80,8.0,North,10.4,-,N/A,,Overcast,360,2013-06-30 12:18:00
7:53 AM,64.9,62.1,90,29.80,6.0,North,10.4,-,N/A,,Overcast,10,2013-06-30 12:53:00
8:36 AM,66.2,62.6,88,29.82,9.0,North,12.7,18.4,N/A,,Overcast,10,2013-06-30 13:36:00
8:53 AM,68.0,63.0,84,29.81,10.0,North,10.4,-,N/A,,Overcast,10,2013-06-30 13:53:00
9:21 AM,68.0,62.6,83,29.82,10.0,NNE,11.5,-,N/A,,Overcast,20,2013-06-30 14:21:00
9:53 AM,68.0,63.0,84,29.82,10.0,NNE,11.5,-,N/A,,Overcast,30,2013-06-30 14:53:00
10:53 AM,72.0,63.0,73,29.83,10.0,NNE,12.7,-,0.00,,Overcast,20,2013-06-30 15:53:00
11:00 AM,71.6,62.6,73,29.84,10.0,NNE,12.7,-,N/A,,Mostly Cloudy,30,2013-06-30 16:00:00
11:21 AM,71.6,62.6,73,29.84,10.0,NNE,15.0,21.9,N/A,,Overcast,30,2013-06-30 16:21:00
11:53 AM,72.0,61.0,68,29.83,10.0,NNE,17.3,21.9,N/A,,Overcast,20,2013-06-30 16:53:00
12:39 PM,71.6,60.8,69,29.85,10.0,NNE,15.0,21.9,N/A,,Overcast,30,2013-06-30 17:39:00
12:53 PM,71.1,61.0,70,29.84,10.0,NNE,16.1,21.9,N/A,,Overcast,30,2013-06-30 17:53:00
1:53 PM,73.0,61.0,66,29.84,10.0,NNE,15.0,25.3,N/A,,Overcast,30,2013-06-30 18:53:00
2:53 PM,73.0,62.1,68,29.85,10.0,NNE,13.8,23.0,N/A,,Scattered Clouds,20,2013-06-30 19:53:00
3:53 PM,75.0,62.1,64,29.85,10.0,NNE,15.0,24.2,N/A,,Mostly Cloudy,30,2013-06-30 20:53:00
4:53 PM,75.0,59.0,57,29.85,10.0,NNE,15.0,25.3,N/A,,Mostly Cloudy,30,2013-06-30 21:53:00
5:53 PM,73.9,62.1,66,29.86,10.0,North,13.8,25.3,N/A,,Scattered Clouds,10,2013-06-30 22:53:00
6:53 PM,72.0,62.1,71,29.87,10.0,NNE,15.0,25.3,N/A,,Mostly Cloudy,20,2013-06-30 23:53:00
7:53 PM,71.1,59.0,66,29.88,10.0,North,12.7,25.3,N/A,,Clear,10,2013-07-01 00:53:00
8:53 PM,69.1,55.9,63,29.89,10.0,NNE,15.0,23.0,N/A,,Scattered Clouds,20,2013-07-01 01:53:00
9:53 PM,68.0,54.0,61,29.91,10.0,NNE,15.0,24.2,N/A,,Mostly Cloudy,20,2013-07-01 02:53:00
10:53 PM,66.9,54.0,63,29.91,10.0,NNE,11.5,-,N/A,,Overcast,30,2013-07-01 03:53:00
11:53 PM,64.0,55.9,75,29.91,10.0,North,10.4,-,0.00,Rain,Light Rain,10,2013-07-01 04:53:00